Location: Melque
(41.0517°N, 4.4694°W)
Time: 23:10:38
(UTC+00:00)

Cosmos 2084 Rocket - Visible Passes

Search period start: 13 March 2026 00:00
Search period end: 23 March 2026 00:00
Orbit: 538 x 573 km, 62.8° (Epoch: 13 March)

Date Brightness Start Highest point End Pass type
(mag) Time Alt. Az. Time Alt. Az. Time Alt. Az.
13 Mar 6.1 05:38:24 10° SSE 05:41:16 19° ESE 05:44:10 10° ENE visible
14 Mar 5.6 05:34:40 10° S 05:38:04 26° ESE 05:41:29 10° ENE visible
15 Mar 4.9 05:31:09 10° S 05:34:52 36° ESE 05:38:39 10° NE visible
16 Mar 4.1 05:27:46 10° SSW 05:31:43 51° ESE 05:35:43 10° NE visible
17 Mar 3.5 05:24:32 10° SSW 05:28:34 74° ESE 05:32:41 10° NE visible
18 Mar 3.2 05:21:42 12° SW 05:25:27 80° NW 05:29:34 10° NNE visible
19 Mar 6.0 03:43:33 13° ESE 03:44:07 14° ESE 03:46:12 10° E visible
19 Mar 3.4 05:19:23 17° SW 05:22:21 57° NW 05:26:25 10° NNE visible
20 Mar 5.6 03:41:05 19° ESE 03:41:05 19° ESE 03:43:47 10° ENE visible
20 Mar 3.8 05:16:55 20° WSW 05:19:17 41° NW 05:23:12 10° NNE visible
21 Mar 5.4 03:38:29 24° E 03:38:29 24° E 03:41:04 10° ENE visible
21 Mar 4.3 05:14:18 21° W 05:16:14 31° NW 05:19:56 10° NNE visible
22 Mar 5.2 03:35:46 28° ENE 03:35:46 28° ENE 03:38:11 10° NE visible
22 Mar 4.7 05:11:35 19° WNW 05:13:12 24° NW 05:16:36 10° NNE visible
